Weather History for KUUU - September, 2013

Change the Weather History Date:

Friday, September 20, 2013

  Actual Average Record
Temperature  
Mean Temperature 62 °F -  
Max Temperature 73 °F 70 °F 82 °F (1983)
Min Temperature 50 °F 54 °F 39 °F (1979)
Degree Days  
Heating Degree Days 4    
Growing Degree Days 12 (Base 50)    
Moisture  
Dew Point 55 °F    
Average Humidity 84    
Maximum Humidity 100    
Minimum Humidity 53    
Precipitation  
Precipitation 0.00 in - - ()
Sea Level Pressure  
Sea Level Pressure 30.06 in    
Wind  
Wind Speed 2 mph (SSW)    
Max Wind Speed 9 mph    
Max Gust Speed -    
Visibility 7 miles    
Events Fog    
Averages and records for this station are not official NWS values.
T = Trace of Precipitation, MM = Missing Value Source: NWS Daily Summary

Daily Weather History Graph

Daily Weather History Graph

Search for Another Location

Airport or City:

Trip Planner

Search our weather history database for the weather conditions in past years. The results will help you decide how hot, cold, wet, or windy it might be!

Date:

Astronomy

Sep. 20, 2013 Rise Set
Actual Time 6:30 AM EDT 6:45 PM EDT
Civil Twilight 6:03 AM EDT 7:13 PM EDT
Nautical Twilight 5:30 AM EDT 7:45 PM EDT
Astronomical Twilight 4:57 AM EDT 8:18 PM EDT
Moon 7:15 PM EDT (9/20) 7:43 AM EDT (9/20)
Length of Visible Light 13h 10m
Length of Day
12h 14m
Full, 98% of the Moon is Illuminated
Sep 20
Full
Sep 26
Last Quarter
Oct 4
New
Oct 11
First Quarter
Oct 18
Full

Hourly Weather History & Observations

Time (EDT) Temp. Dew Point Humidity Pressure Visibility Wind Dir Wind Speed Gust Speed Precip Events Conditions
12:53 AM 59.0 °F 55.9 °F 90% 30.07 in 10.0 mi Calm Calm - N/A   Clear
1:53 AM 57.9 °F 55.9 °F 93% 30.07 in 10.0 mi Calm Calm - N/A   Clear
2:53 AM 53.1 °F 52.0 °F 96% 30.06 in 5.0 mi Calm Calm - N/A   Clear
3:37 AM 51.8 °F 50.0 °F 94% 30.07 in 1.2 mi Calm Calm - N/A   Clear
3:45 AM 53.6 °F 51.8 °F 94% 30.07 in 0.5 mi Calm Calm - N/A Fog Fog
3:53 AM 53.1 °F 51.1 °F 93% 30.06 in 1.0 mi Calm Calm - N/A   Clear
3:57 AM 51.8 °F 51.8 °F 100% 30.07 in 4.0 mi Calm Calm - N/A   Clear
4:53 AM 53.1 °F 52.0 °F 96% 30.07 in 10.0 mi Calm Calm - N/A   Clear
5:53 AM 51.1 °F 50.0 °F 96% 30.06 in 9.0 mi Calm Calm - N/A   Clear
6:12 AM 51.8 °F 48.2 °F 88% 30.06 in 0.8 mi Calm Calm - N/A   Clear
6:26 AM 50.0 °F 48.2 °F 94% 30.06 in 2.0 mi Calm Calm - N/A   Clear
6:53 AM 51.1 °F 51.1 °F 100% 30.06 in 2.0 mi Calm Calm - N/A   Clear
7:09 AM 51.8 °F 51.8 °F 100% 30.07 in 1.2 mi Calm Calm - N/A   Clear
7:21 AM 55.4 °F 53.6 °F 94% 30.06 in 3.0 mi SSW 3.5 mph - N/A   Clear
7:53 AM 59.0 °F 55.9 °F 90% 30.08 in 7.0 mi Calm Calm - N/A   Clear
8:53 AM 63.0 °F 55.0 °F 75% 30.10 in 10.0 mi Calm Calm - N/A   Clear
9:53 AM 66.9 °F 55.0 °F 66% 30.09 in 10.0 mi WSW 3.5 mph - N/A   Clear
10:53 AM 70.0 °F 55.0 °F 59% 30.09 in 10.0 mi Calm Calm - N/A   Clear
11:53 AM 73.0 °F 55.0 °F 53% 30.09 in 10.0 mi Variable 3.5 mph - N/A   Clear
12:53 PM 73.0 °F 55.0 °F 53% 30.07 in 10.0 mi Variable 3.5 mph - N/A   Clear
1:53 PM 72.0 °F 57.9 °F 61% 30.06 in 10.0 mi South 9.2 mph - N/A   Clear
2:53 PM 72.0 °F 55.0 °F 55% 30.05 in 10.0 mi South 8.1 mph - N/A   Clear
3:53 PM 70.0 °F 55.9 °F 61% 30.03 in 10.0 mi South 9.2 mph - N/A   Clear
4:53 PM 69.1 °F 55.0 °F 61% 30.02 in 10.0 mi South 9.2 mph - N/A   Clear
5:53 PM 66.0 °F 57.0 °F 73% 30.04 in 10.0 mi South 6.9 mph - N/A   Clear
6:53 PM 63.0 °F 59.0 °F 87% 30.04 in 10.0 mi SSW 5.8 mph - N/A   Clear
7:53 PM 62.1 °F 60.1 °F 93% 30.05 in 8.0 mi SSW 3.5 mph - N/A   Clear
8:53 PM 62.1 °F 60.1 °F 93% 30.05 in 8.0 mi South 3.5 mph - N/A   Clear
9:53 PM 61.0 °F 59.0 °F 93% 30.04 in 9.0 mi South 5.8 mph - N/A   Clear
10:53 PM 60.1 °F 57.9 °F 93% 30.04 in 5.0 mi South 4.6 mph - N/A   Clear
11:53 PM 60.1 °F 59.0 °F 96% 30.04 in 4.0 mi Calm Calm - N/A   Clear